Regional Weather Roundup
Issued by NWS

Home | Current Version | Previous Version | Text Only | Print | Product List | Glossary Off
Versions: 1 2 3 4 5 6 7 8 9 10 11 12 13 14 15 16 17 18 19 20 21 22 23 24 25 26 27 28 29 30 31 32 33 34 35 36 37 38 39 40 41 42 43 44 45 46 47 48 49 50

000
ASUS43 KLSX 020407
RWRMO

WEATHER SUMMARY FOR MISSOURI
NATIONAL WEATHER SERVICE SPRINGFIELD MO
1100 PM CDT SAT AUG 01 2015

NOTE: "FAIR" INDICATES FEW OR NO CLOUDS BELOW 12,000 FEET WITH NO
       SIGNIFICANT WEATHER AND/OR OBSTRUCTIONS TO VISIBILITY.
       CURRENT SKY AND/OR WEATHER CONDITIONS ARE NOT AVAILABLE FOR
       CHILLICOTHE AND FARMINGTON.

MOZ001>031-035>038-043-044-053-054-020500-
...NORTHERN AND WESTERN MISSOURI...

CITY           SKY/WX    TMP DP  RH WIND       PRES   REMARKS
KANSAS CTY INT MOCLDY    74  61  63 SE8       29.98R
KANSAS C DTWN  PTCLDY    75  61  61 E6        29.97R
LEE`S SUMMIT   CLEAR     74  60  61 CALM      29.99R
ST JOSEPH      MOCLDY    74  63  68 SE6       29.97R
CHILLICOTHE      N/A     70  60  70 S3        29.97F
KIRKSVILLE     PTCLDY    68  62  81 CALM      29.96F

$$
MOZ066>068-077>081-088>096-101>105-020500-
...SOUTHWEST MISSOURI...

CITY           SKY/WX    TMP DP  RH WIND       PRES   REMARKS
SPRINGFIELD    CLEAR     76  65  68 CALM      30.00S
JOPLIN         CLEAR     75  67  76 CALM      30.01R

$$
MOZ032>034-039>042-045>050-055>058-069>072-020500-
...CENTRAL MISSOURI...

CITY           SKY/WX    TMP DP  RH WIND       PRES   REMARKS
COLUMBIA       MOCLDY    71  68  90 NE5       29.99R
JEFFERSON CITY MOCLDY    72  67  84 E3        29.98R
ROLLA          PTCLDY    71  69  93 SE8       29.99S
SEDALIA        PTCLDY    71  65  81 S3        30.00R
WHITEMAN AFB   MOCLDY    69  67  92 S9        29.97R
WARRENSBURG    PTCLDY    70  63  78 S5        29.98R
OSAGE BEACH    PTCLDY    72  66  83 CALM      29.99S

$$
MOZ051-052-059>065-020500-
...EAST CENTRAL MISSOURI...

CITY           SKY/WX    TMP DP  RH WIND       PRES   REMARKS
ST LOUIS INTL  MOCLDY    84  68  58 S6        29.98S
SPIRIT OF STL  PTCLDY    78  71  79 S3        29.96S
ST CHARLES     MOCLDY    75  71  87 E5        29.96S

$$
MOZ072>076-082>087-097>100-106>115-020500-
...SOUTH CENTRAL AND SOUTHEAST MISSOURI...

CITY           SKY/WX    TMP DP  RH WIND       PRES   REMARKS
CAPE GIRARDEAU CLEAR     75  72  90 CALM      29.98R
FARMINGTON     CLEAR     73  70  88 CALM      30.05R
POPLAR BLUFF   CLOUDY    80  72  76 CALM      29.97R
WEST PLAINS    CLEAR     72  68  87 CALM      30.03R

$$


USA.gov is the U.S. government's official web portal to all federal, state and local government web resources and services.